• In Hungary
  • List of Countries
  • For 7 days
  • Water Temperature
  • Satellite Maps
  • Weather Map
  • News
  • Weather Widgets
  • user-avatar
    Login

    Hourly Weather Bangalol

    Today, 26 September, Tuesday

    Time Temperature Precipitation Wind Pressure Humidity
    00:00 +24°C° 0.5 mm 2 mps 697 mmHg 88%
    01:00 +23°C° 0.5 mm 2 mps 696 mmHg 89%
    02:00 +23°C° 0.5 mm 2 mps 696 mmHg 90%
    03:00 +23°C° 0.2 mm 2 mps 696 mmHg 90%
    04:00 +23°C° 0.2 mm 1 mps 696 mmHg 91%
    05:00 +23°C° 0 mm 1 mps 696 mmHg 92%
    06:00 +24°C° 0 mm 1 mps 696 mmHg 88%
    07:00 +25°C° 0 mm 2 mps 697 mmHg 84%
    08:00 +26°C° 0 mm 2 mps 697 mmHg 80%
    09:00 +27°C° 0.1 mm 2 mps 697 mmHg 74%
    10:00 +28°C° 0.1 mm 2 mps 697 mmHg 68%
    11:00 +30°C° 0.1 mm 2 mps 697 mmHg 63%
    12:00 +30°C° 0.9 mm 2 mps 696 mmHg 62%
    13:00 +30°C° 0.9 mm 2 mps 696 mmHg 62%
    14:00 +30°C° 0.9 mm 2 mps 695 mmHg 61%
    15:00 +29°C° 2.5 mm 2 mps 695 mmHg 68%
    16:00 +28°C° 2.5 mm 2 mps 695 mmHg 74%
    17:00 +27°C° 2.5 mm 2 mps 695 mmHg 81%
    18:00 +27°C° 2.2 mm 2 mps 696 mmHg 82%
    19:00 +26°C° 2.2 mm 2 mps 696 mmHg 83%
    20:00 +25°C° 2.2 mm 2 mps 696 mmHg 85%
    21:00 +25°C° 1.4 mm 2 mps 696 mmHg 86%
    22:00 +25°C° 1.4 mm 2 mps 697 mmHg 87%
    23:00 +24°C° 1.4 mm 2 mps 697 mmHg 88%

    Tomorrow, 27 September, Wednesday

    Time Temperature Precipitation Wind Pressure Humidity
    00:00 +24°C° 1.1 mm 2 mps 696 mmHg 88%
    01:00 +24°C° 1.1 mm 2 mps 696 mmHg 89%
    02:00 +24°C° 1.1 mm 2 mps 696 mmHg 90%
    03:00 +23°C° 0.3 mm 2 mps 696 mmHg 91%
    04:00 +23°C° 0.3 mm 2 mps 696 mmHg 92%
    05:00 +23°C° 0.3 mm 2 mps 696 mmHg 92%
    06:00 +24°C° 0.1 mm 2 mps 696 mmHg 89%
    07:00 +25°C° 0.1 mm 2 mps 697 mmHg 86%
    08:00 +25°C° 0.1 mm 3 mps 697 mmHg 84%
    09:00 +27°C° 0.4 mm 3 mps 697 mmHg 79%
    10:00 +28°C° 0.4 mm 3 mps 697 mmHg 75%
    11:00 +29°C° 0.4 mm 3 mps 697 mmHg 70%
    12:00 +29°C° 1.4 mm 3 mps 697 mmHg 70%
    13:00 +29°C° 1.4 mm 3 mps 696 mmHg 70%
    14:00 +30°C° 1.4 mm 3 mps 695 mmHg 70%
    15:00 +28°C° 2.5 mm 3 mps 695 mmHg 75%
    16:00 +27°C° 2.5 mm 3 mps 695 mmHg 80%
    17:00 +26°C° 2.5 mm 2 mps 695 mmHg 86%
    18:00 +26°C° 1.8 mm 3 mps 696 mmHg 86%
    19:00 +25°C° 1.8 mm 3 mps 696 mmHg 87%
    20:00 +25°C° 1.8 mm 3 mps 697 mmHg 88%
    21:00 +24°C° 1.5 mm 3 mps 697 mmHg 89%
    22:00 +24°C° 1.5 mm 3 mps 697 mmHg 90%
    23:00 +24°C° 1.5 mm 3 mps 697 mmHg 91%

    Day after tomorrow, 28 September, Thursday

    Time Temperature Precipitation Wind Pressure Humidity
    00:00 +24°C° 1.5 mm 3 mps 696 mmHg 92%
    01:00 +22°C° 1.5 mm 3 mps 696 mmHg 93%
    02:00 +22°C° 1.5 mm 3 mps 695 mmHg 94%
    03:00 +22°C° 0.9 mm 3 mps 695 mmHg 94%
    04:00 +22°C° 0.9 mm 3 mps 695 mmHg 94%
    05:00 +22°C° 0.9 mm 3 mps 695 mmHg 94%
    06:00 +22°C° 0.4 mm 3 mps 696 mmHg 93%
    07:00 +24°C° 0.4 mm 3 mps 696 mmHg 91%
    08:00 +24°C° 0.4 mm 3 mps 697 mmHg 89%
    09:00 +25°C° 0.4 mm 3 mps 697 mmHg 85%
    10:00 +26°C° 0.4 mm 3 mps 697 mmHg 81%
    11:00 +28°C° 0.4 mm 4 mps 697 mmHg 77%
    12:00 +28°C° 0.9 mm 4 mps 696 mmHg 76%
    13:00 +28°C° 0.9 mm 4 mps 695 mmHg 74%
    14:00 +29°C° 0.9 mm 5 mps 695 mmHg 73%
    15:00 +28°C° 1.1 mm 4 mps 695 mmHg 77%
    16:00 +27°C° 1.1 mm 4 mps 695 mmHg 80%
    17:00 +26°C° 1.1 mm 4 mps 695 mmHg 84%
    18:00 +25°C° 1.2 mm 4 mps 696 mmHg 86%
    19:00 +25°C° 1.2 mm 4 mps 696 mmHg 87%
    20:00 +23°C° 1.2 mm 4 mps 697 mmHg 89%
    21:00 +23°C° 0.6 mm 4 mps 697 mmHg 90%
    22:00 +23°C° 0.6 mm 4 mps 697 mmHg 91%
    23:00 +22°C° 0.6 mm 4 mps 697 mmHg 92%

    29 September, Friday

    Time Temperature Precipitation Wind Pressure Humidity
    00:00 +22°C° 0.5 mm 3 mps 696 mmHg 92%
    01:00 +22°C° 0.5 mm 3 mps 696 mmHg 93%
    02:00 +22°C° 0.5 mm 3 mps 695 mmHg 94%
    03:00 +21°C° 0.1 mm 3 mps 695 mmHg 94%
    04:00 +21°C° 0.1 mm 3 mps 695 mmHg 94%
    05:00 +21°C° 0.1 mm 2 mps 695 mmHg 94%
    06:00 +22°C° 0 mm 3 mps 696 mmHg 92%
    07:00 +24°C° 0 mm 3 mps 697 mmHg 89%
    08:00 +24°C° 0 mm 3 mps 697 mmHg 87%
    09:00 +26°C° 0.3 mm 3 mps 697 mmHg 83%
    10:00 +27°C° 0.3 mm 3 mps 697 mmHg 79%
    11:00 +28°C° 0.3 mm 3 mps 697 mmHg 75%
    12:00 +28°C° 1.2 mm 3 mps 696 mmHg 75%
    13:00 +28°C° 1.2 mm 3 mps 695 mmHg 75%
    14:00 +28°C° 1.2 mm 3 mps 694 mmHg 75%
    15:00 +27°C° 2.3 mm 3 mps 694 mmHg 79%
    16:00 +26°C° 2.3 mm 3 mps 695 mmHg 82%
    17:00 +25°C° 2.3 mm 3 mps 695 mmHg 86%
    18:00 +25°C° 1 mm 3 mps 695 mmHg 87%
    19:00 +25°C° 1 mm 3 mps 696 mmHg 88%
    20:00 +24°C° 1 mm 3 mps 697 mmHg 90%
    21:00 +24°C° 1 mm 3 mps 697 mmHg 90%
    22:00 +24°C° 1 mm 3 mps 697 mmHg 91%
    23:00 +24°C° 1 mm 3 mps 697 mmHg 92%

    30 September, Saturday

    Time Temperature Precipitation Wind Pressure Humidity
    00:00 +22°C° 1.6 mm 3 mps 696 mmHg 92%
    01:00 +23°C° 1.6 mm 2 mps 696 mmHg 93%
    02:00 +23°C° 1.6 mm 2 mps 695 mmHg 93%
    03:00 +23°C° 0.3 mm 2 mps 696 mmHg 94%
    04:00 +23°C° 0.3 mm 2 mps 696 mmHg 94%
    05:00 +23°C° 0.3 mm 2 mps 696 mmHg 94%
    06:00 +23°C° 0 mm 2 mps 697 mmHg 93%
    07:00 +24°C° 0 mm 1 mps 697 mmHg 91%
    08:00 +24°C° 0 mm 1 mps 698 mmHg 90%
    09:00 +25°C° 0 mm 2 mps 698 mmHg 85%
    10:00 +26°C° 0 mm 2 mps 697 mmHg 81%
    11:00 +27°C° 0 mm 2 mps 697 mmHg 76%
    12:00 +27°C° 0.1 mm 2 mps 696 mmHg 74%
    13:00 +28°C° 0.1 mm 2 mps 696 mmHg 73%
    14:00 +28°C° 0.1 mm 2 mps 695 mmHg 71%
    15:00 +28°C° 0.1 mm 2 mps 695 mmHg 73%
    16:00 +27°C° 0.1 mm 1 mps 695 mmHg 76%
    17:00 +27°C° 0.1 mm 1 mps 696 mmHg 78%
    18:00 +26°C° 0.3 mm 1 mps 696 mmHg 80%
    19:00 +26°C° 0.3 mm 1 mps 697 mmHg 82%
    20:00 +25°C° 0.3 mm 1 mps 697 mmHg 83%
    21:00 +25°C° 0.2 mm 1 mps 697 mmHg 84%
    22:00 +24°C° 0.2 mm 1 mps 697 mmHg 85%
    23:00 +24°C° 0.2 mm 1 mps 697 mmHg 85%

    1 October, Sunday

    Time Temperature Precipitation Wind Pressure Humidity
    00:00 +24°C° 0 mm 1 mps 696 mmHg 87%
    01:00 +24°C° 0 mm 1 mps 696 mmHg 88%
    02:00 +23°C° 0 mm 1 mps 695 mmHg 90%
    03:00 +23°C° 0 mm 1 mps 696 mmHg 90%
    04:00 +23°C° 0 mm 1 mps 696 mmHg 91%
    05:00 +23°C° 0 mm 1 mps 696 mmHg 92%
    06:00 +24°C° 0 mm 1 mps 697 mmHg 89%
    07:00 +25°C° 0 mm 1 mps 697 mmHg 86%
    08:00 +25°C° 0 mm 1 mps 698 mmHg 83%
    09:00 +26°C° 0.2 mm 1 mps 698 mmHg 79%
    10:00 +28°C° 0.2 mm 2 mps 697 mmHg 74%
    11:00 +29°C° 0.2 mm 2 mps 697 mmHg 70%
    12:00 +29°C° 1 mm 2 mps 697 mmHg 69%
    13:00 +29°C° 1 mm 2 mps 696 mmHg 68%
    14:00 +29°C° 1 mm 2 mps 695 mmHg 67%
    15:00 +29°C° 1.5 mm 2 mps 696 mmHg 72%
    16:00 +28°C° 1.5 mm 1 mps 696 mmHg 76%
    17:00 +27°C° 1.5 mm 1 mps 696 mmHg 81%
    18:00 +26°C° 1.4 mm 1 mps 696 mmHg 83%
    19:00 +26°C° 1.4 mm 1 mps 697 mmHg 85%
    20:00 +25°C° 1.4 mm 2 mps 697 mmHg 87%
    21:00 +25°C° 0.3 mm 2 mps 697 mmHg 88%
    22:00 +24°C° 0.3 mm 2 mps 697 mmHg 89%
    23:00 +24°C° 0.3 mm 2 mps 697 mmHg 91%
    Show more